Flight Track Log - Related Links

Times and Time Zones

All times are in EDT time to prevent confusion due to time zone crossing. See the N59CW flight status page for this flight to view local times or setup timezone preferences in your user account.

Time Position Orientation Groundspeed Altitude Reporting Facility
EDT Latitude Longitude Course Direction KTS MPH feet Rate Location/Type
Fri 12:39:06 27.7667 -82.6333 330° Northwest 60 69 200  Level Tampa TRACON
Fri 12:41:30 27.9167 -82.7333 330° Northwest 98 113 1,500 452 Climbing Tampa TRACON
Fri 12:42:12 27.9167 -82.7667 270° West 110 127 1,600 412 Climbing Tampa TRACON
Fri 12:43:12 27.9000 -82.7833 221° Southwest 123 142 2,200 595 Climbing Tampa TRACON
Fri 12:44:13 27.8667 -82.7833 180° South 104 120 2,800 446 Climbing Tampa TRACON
Fri 12:45:13 27.8333 -82.7833 180° South 123 142 3,100 50 Climbing Tampa TRACON
Fri 12:46:12 27.8000 -82.7833 180° South 123 142 2,900 -400 Descending Tampa TRACON
Fri 12:47:13 27.7667 -82.7833 180° South 122 140 2,300 -378 Descending Tampa TRACON
Fri 12:48:19 27.7333 -82.7833 180° South 107 123 2,100 -95 Descending Tampa TRACON
Fri 12:49:19 27.7167 -82.7667 138° Southeast 97 112 2,100 -50 Level Tampa TRACON
Fri 12:50:19 27.7167 -82.7333 90° East 93 107 2,000 -100 Descending Tampa TRACON
Fri 12:51:19 27.7167 -82.7000 90° East 104 120 1,900 -50 Descending Tampa TRACON
Fri 12:52:19 27.7167 -82.6833 90° East 89 102 1,900  Level Tampa TRACON
Fri 12:53:19 27.7333 -82.6667 42° Northeast 83 96 1,900  Level Tampa TRACON
Fri 12:54:13 27.7667 -82.6667 360° North 87 100 1,900 105 Level Tampa TRACON
Fri 12:55:13 27.7833 -82.6667 360° North 90 104 2,100 -150 Climbing Tampa TRACON
Fri 12:56:13 27.8000 -82.6667 360° North 90 104 1,600 -400 Descending Tampa TRACON
Fri 12:57:13 27.8333 -82.6833 336° Northwest 76 87 1,300 -350 Descending Tampa TRACON
Fri 12:58:13 27.8500 -82.6833 360° North 81 93 900 -368 Descending Tampa TRACON
Fri 12:59:07 27.8667 -82.6833 360° North 84 97 600 -273 Descending Tampa TRACON
Fri 13:00:25 27.9000 -82.6833 360° North 83 96 300 190 Descending Tampa TRACON
Fri 13:01:13 27.9167 -82.7000 319° Northwest 123 142 1,000 889 Climbing Tampa TRACON
Fri 13:02:13 27.9000 -82.7333 241° Southwest 108 124 1,900 800 Climbing Tampa TRACON
Fri 13:03:13 27.9000 -82.7667 270° West 98 113 2,600 500 Climbing Tampa TRACON
Fri 13:04:13 27.9000 -82.8000 270° West 102 117 2,900 200 Climbing Tampa TRACON
Fri 13:05:13 27.9000 -82.8333 270° West 114 131 3,000 100 Climbing Tampa TRACON
Fri 13:06:13 27.8833 -82.8667 241° Southwest 122 140 3,100 50 Climbing Tampa TRACON
Fri 13:07:14 27.9000 -82.8833 319° Northwest 82 94 3,100  Level Tampa TRACON
Fri 13:08:14 27.9167 -82.8500 60° Northeast 102 117 3,100 -50 Level Tampa TRACON
Fri 13:09:14 27.9000 -82.8167 119° Southeast 124 143 3,000  Descending Tampa TRACON
Fri 13:10:14 27.8833 -82.8333 221° Southwest 120 138 3,100 -48 Climbing Tampa TRACON
Fri 13:11:20 27.8667 -82.8500 221° Southwest 123 142 2,900 -95 Descending Tampa TRACON
Fri 13:12:20 27.8333 -82.8667 204° Southwest 111 128 2,900  Level Tampa TRACON
Fri 13:13:20 27.8000 -82.9000 221° Southwest 115 132 2,900 53 Level Tampa TRACON
Fri 13:14:14 27.7833 -82.9000 180° South 111 128 3,000 53 Climbing Tampa TRACON
Fri 13:15:14 27.7500 -82.9000 180° South 114 131 3,000 -50 Level Tampa TRACON
Fri 13:16:14 27.7333 -82.8833 138° Southeast 102 117 2,900 -300 Descending Tampa TRACON
Fri 13:17:14 27.7167 -82.8500 119° Southeast 99 114 2,400 -500 Descending Tampa TRACON

Login

Don't have an account? Register now (free) for customized features, flight alerts, and more!